Weather History for Albert Lea, MN

Change the Weather History Date:

Friday, February 14, 2014

  Actual Average Record
Temperature  
Mean Temperature 8 °F -  
Max Temperature 12 °F 28 °F 50 °F (2005)
Min Temperature 1 °F 13 °F -14 °F (2007)
Degree Days  
Heating Degree Days 58    
Moisture  
Dew Point 2 °F    
Average Humidity 82    
Maximum Humidity 92    
Minimum Humidity 72    
Precipitation  
Precipitation 0.00 in - - ()
Sea Level Pressure  
Sea Level Pressure 29.88 in    
Wind  
Wind Speed 7 mph (NW)    
Max Wind Speed 14 mph    
Max Gust Speed 20 mph    
Visibility 9 miles    
Events      
Averages and records for this station are not official NWS values.
T = Trace of Precipitation, MM = Missing Value Source: NWS Daily Summary

Daily Weather History Graph

Daily Weather History Graph

Search for Another Location

Airport:

Trip Planner

Search our weather history database for the weather conditions in past years. The results will help you decide how hot, cold, wet, or windy it might be!

Date:

Astronomy

Feb. 14, 2014 Rise Set
Actual Time 7:13 AM CST 5:42 PM CST
Civil Twilight 6:43 AM CST 6:11 PM CST
Nautical Twilight 6:10 AM CST 6:45 PM CST
Astronomical Twilight 5:37 AM CST 7:18 PM CST
Moon 5:48 PM CST (2/14) 6:39 AM CST (2/14)
Length of Visible Light 11h 28m
Length of Day
10h 28m
Full, 100% of the Moon is Illuminated
Feb 14
Full
Feb 14
Full
Feb 22
Last Quarter
Mar 1
New
Mar 8
First Quarter

Hourly Weather History & Observations

Time (CST) Temp. Windchill Dew Point Humidity Pressure Visibility Wind Dir Wind Speed Gust Speed Precip Events Conditions
12:13 AM 3.2 °F -6.2 °F -0.4 °F 85% 29.71 in - WNW 4.6 mph - N/A   Overcast
12:32 AM 3.2 °F -7.8 °F -0.4 °F 85% 29.73 in - WNW 5.8 mph - N/A   Overcast
12:52 AM 3.2 °F -7.8 °F -0.4 °F 85% 29.73 in - WNW 5.8 mph - N/A   Overcast
1:13 AM 3.2 °F -10.3 °F -0.4 °F 85% 29.72 in - NW 8.1 mph - N/A   Unknown
1:32 AM 3.2 °F -10.3 °F -0.4 °F 85% 29.71 in - NNW 8.1 mph - N/A   Unknown
1:53 AM 3.2 °F -9.1 °F -0.4 °F 85% 29.71 in - NW 6.9 mph - N/A   Clear
2:13 AM 3.2 °F -9.1 °F -0.4 °F 85% 29.70 in - NW 6.9 mph - N/A   Unknown
2:33 AM 3.2 °F -10.3 °F -0.4 °F 85% 29.68 in - North 8.1 mph - N/A   Unknown
2:52 AM 3.2 °F -11.3 °F -0.4 °F 85% 29.68 in - North 9.2 mph - N/A   Overcast
3:13 AM 3.2 °F -10.3 °F -0.4 °F 85% 29.68 in - North 8.1 mph - N/A   Overcast
3:32 AM 5.0 °F -9.1 °F -0.4 °F 78% 29.68 in - North 9.2 mph - N/A   Overcast
3:52 AM 5.0 °F -9.1 °F -0.4 °F 78% 29.69 in - North 9.2 mph - N/A   Overcast
4:12 AM 5.0 °F -6.9 °F 1.4 °F 85% 29.72 in - NW 6.9 mph - N/A   Mostly Cloudy
4:32 AM 5.0 °F -6.9 °F 1.4 °F 85% 29.75 in - WNW 6.9 mph - N/A   Mostly Cloudy
4:53 AM - - - N/A% 29.77 in - WNW 6.9 mph - N/A   Unknown
5:12 AM 3.2 °F -7.8 °F -0.4 °F 85% 29.77 in - NW 5.8 mph - N/A   Unknown
5:32 AM 3.2 °F -6.2 °F -0.4 °F 85% 29.77 in - NW 4.6 mph - N/A   Unknown
5:52 AM 3.2 °F -7.8 °F -0.4 °F 85% 29.77 in - WNW 5.8 mph - N/A   Unknown
6:12 AM 3.2 °F -7.8 °F -0.4 °F 85% 29.78 in - NW 5.8 mph - N/A   Unknown
6:33 AM 3.2 °F -10.3 °F -0.4 °F 85% 29.79 in - NW 8.1 mph - N/A   Unknown
6:52 AM 3.2 °F -10.3 °F -0.4 °F 85% 29.79 in - NNW 8.1 mph - N/A   Unknown
7:13 AM 3.2 °F -6.2 °F -0.4 °F 85% 29.82 in - NW 4.6 mph - N/A   Unknown
7:32 AM 3.2 °F -9.1 °F -0.4 °F 85% 29.83 in - NW 6.9 mph - N/A   Unknown
7:52 AM 3.2 °F -9.1 °F -0.4 °F 85% 29.84 in - NW 6.9 mph - N/A   Unknown
8:13 AM - - - N/A% 29.85 in - NW 8.1 mph - N/A   Unknown
8:32 AM 3.2 °F -10.3 °F -0.4 °F 85% 29.86 in - NNW 8.1 mph - N/A   Overcast
8:52 AM 3.2 °F -13.9 °F -0.4 °F 85% 29.87 in - NNW 12.7 mph - N/A   Overcast
9:13 AM 3.2 °F -11.3 °F -0.4 °F 85% 29.87 in - NNW 9.2 mph 16.1 mph N/A   Overcast
9:32 AM 3.2 °F -10.3 °F -0.4 °F 85% 29.87 in - NNW 8.1 mph - N/A   Overcast
9:53 AM 5.0 °F -6.9 °F -0.4 °F 78% 29.88 in - NW 6.9 mph - N/A   Overcast
10:12 AM 6.8 °F -7.8 °F -0.4 °F 72% 29.89 in 10.0 mi NNW 10.4 mph - N/A   Overcast
10:33 AM 6.8 °F -6.9 °F -0.4 °F 72% 29.90 in 7.0 mi NW 9.2 mph - N/A   Overcast
10:52 AM 6.8 °F -7.8 °F -0.4 °F 72% 29.91 in 5.0 mi NW 10.4 mph - N/A   Haze
11:13 AM 6.8 °F -5.9 °F -0.4 °F 72% 29.92 in 7.0 mi NW 8.1 mph 16.1 mph N/A   Mostly Cloudy
11:32 AM 6.8 °F -6.9 °F 1.4 °F 79% 29.92 in 10.0 mi NW 9.2 mph - N/A   Scattered Clouds
11:52 AM 6.8 °F -4.8 °F 1.4 °F 79% 29.92 in 10.0 mi NW 6.9 mph - N/A   Clear
12:12 PM 8.6 °F -3.7 °F 1.4 °F 73% 29.92 in 10.0 mi NNW 8.1 mph - N/A   Clear
12:32 PM 8.6 °F -3.7 °F 1.4 °F 73% 29.92 in 10.0 mi NW 8.1 mph - N/A   Clear
12:53 PM 8.6 °F -4.7 °F 1.4 °F 73% 29.92 in 10.0 mi NW 9.2 mph - N/A   Clear
1:12 PM 10.4 °F -3.3 °F 3.2 °F 73% 29.92 in 10.0 mi NW 10.4 mph - N/A   Clear
1:32 PM 10.4 °F -3.3 °F 3.2 °F 73% 29.92 in 10.0 mi NW 10.4 mph - N/A   Clear
1:53 PM 10.4 °F -3.3 °F 3.2 °F 73% 29.91 in 10.0 mi NW 10.4 mph - N/A   Scattered Clouds
2:12 PM 10.4 °F -3.3 °F 3.2 °F 73% 29.93 in 10.0 mi WNW 10.4 mph - N/A   Clear
2:32 PM 10.4 °F -4.1 °F 5.0 °F 79% 29.94 in 7.0 mi NW 11.5 mph 19.6 mph N/A   Scattered Clouds
2:53 PM 10.4 °F -4.8 °F 5.0 °F 79% 29.95 in 7.0 mi NW 12.7 mph 19.6 mph N/A   Mostly Cloudy
3:12 PM 12.2 °F -3.1 °F 5.0 °F 73% 29.95 in 7.0 mi NW 13.8 mph 19.6 mph N/A   Mostly Cloudy
3:32 PM 12.2 °F -2.5 °F 6.8 °F 79% 29.95 in 7.0 mi WNW 12.7 mph 17.3 mph N/A   Mostly Cloudy
3:53 PM 12.2 °F -0.2 °F 6.8 °F 79% 29.96 in 7.0 mi WNW 9.2 mph 18.4 mph N/A   Mostly Cloudy
4:12 PM 12.2 °F -0.2 °F 6.8 °F 79% 29.96 in 10.0 mi WNW 9.2 mph - N/A   Mostly Cloudy
4:32 PM 12.2 °F -0.2 °F 6.8 °F 79% 29.96 in 10.0 mi NW 9.2 mph 16.1 mph N/A   Scattered Clouds
4:53 PM 10.4 °F -0.4 °F 6.8 °F 85% 29.96 in 10.0 mi NW 6.9 mph - N/A   Clear
5:12 PM 10.4 °F -2.4 °F 6.8 °F 85% 29.98 in 10.0 mi WNW 9.2 mph - N/A   Clear
5:32 PM 10.4 °F -1.5 °F 5.0 °F 79% 29.98 in 10.0 mi NW 8.1 mph - N/A   Clear
5:52 PM 10.4 °F -0.4 °F 5.0 °F 79% 29.99 in 10.0 mi WNW 6.9 mph - N/A   Clear
6:13 PM 10.4 °F -0.4 °F 5.0 °F 79% 29.99 in 10.0 mi WNW 6.9 mph - N/A   Clear
6:32 PM 8.6 °F -1.3 °F 5.0 °F 85% 29.98 in 10.0 mi NW 5.8 mph - N/A   Clear
6:53 PM 8.6 °F 0.1 °F 3.2 °F 79% 29.99 in 10.0 mi NW 4.6 mph - N/A   Clear
7:12 PM 8.6 °F 0.1 °F 3.2 °F 79% 29.99 in 10.0 mi WNW 4.6 mph - N/A   Clear
7:32 PM 6.8 °F -3.5 °F 3.2 °F 85% 29.98 in 10.0 mi WNW 5.8 mph - N/A   Clear
7:53 PM 6.8 °F -3.5 °F 3.2 °F 85% 29.99 in 10.0 mi NW 5.8 mph - N/A   Clear
8:12 PM 6.8 °F -4.8 °F 3.2 °F 85% 30.00 in 10.0 mi WNW 6.9 mph - N/A   Clear
8:32 PM 6.8 °F -3.5 °F 3.2 °F 85% 30.00 in 10.0 mi WNW 5.8 mph - N/A   Clear
8:53 PM 5.0 °F -4.1 °F 1.4 °F 85% 30.00 in 10.0 mi WNW 4.6 mph - N/A   Scattered Clouds
9:12 PM 5.0 °F - 1.4 °F 85% 30.00 in 10.0 mi Calm Calm - N/A   Scattered Clouds
9:32 PM 5.0 °F -5.6 °F 1.4 °F 85% 30.00 in 7.0 mi WNW 5.8 mph - N/A   Mostly Cloudy
9:53 PM 3.2 °F -6.2 °F 1.4 °F 92% 30.01 in 4.0 mi West 4.6 mph - N/A   Overcast
10:12 PM 3.2 °F -6.2 °F 1.4 °F 92% 30.03 in 5.0 mi West 4.6 mph - N/A   Overcast
10:32 PM 3.2 °F -7.8 °F 1.4 °F 92% 30.03 in 10.0 mi WNW 5.8 mph - N/A   Scattered Clouds
10:53 PM 3.2 °F -6.2 °F -0.4 °F 85% 30.03 in 10.0 mi WNW 4.6 mph - N/A   Clear
11:12 PM 3.2 °F -6.2 °F -0.4 °F 85% 30.02 in 10.0 mi WNW 4.6 mph - N/A   Clear
11:32 PM 3.2 °F - -0.4 °F 85% 30.00 in 10.0 mi Calm Calm - N/A   Clear
11:53 PM 1.4 °F - -0.4 °F 92% 30.00 in 10.0 mi Calm Calm - N/A   Clear